Вернуться в каталог

MOLNIYA 1-69

LostСвязьHEO
NORAD 17078·PAYLOAD·🇷🇺 Russia

Запущен Nov 15, 1986 с Plesetsk Cosmodrome

Loading…

Ближайшие Пролёты (ближайшие 24 часа)

TLE

УстаревшееSource: Space-Track

Эпоха: Apr 16, 2026, 15:50 UTC

1 17078U 86089A   26106.66017765 -.00001812  00000-0 -44311-2 0  9996
2 17078  63.4974  20.1387 7348471 252.8245  21.0226  2.00905937288906

Отслеживайте MOLNIYA 1-69 в реальном времени с AllMySat

Download on the App Store